Wind_Speed
25 26 27 29 31 32 30 28 27 27 28 30 27 30 32 32 29 26 30 36 46 52 63 74 84 82 86 83 80 76 73 73 71 70 69 68 66 70 75 77 75 73 70 71 74 72 66
25 27 30 31 31 31 31 32 31 31 31 31 29 31 30 29 29 29 30 30 33 42 51 61 71 81 85 85 86 85 78 77 74 74 72 71 68 67 70 75 79 75 73 73 69 75 69
27 29 29 29 30 31 32 32 33 33 33 33 32 30 30 31 28 28 28 27 28 29 38 50 62 70 79 85 90 86 82 81 78 76 74 71 71 70 67 70 74 78 76 74 71 69 69
30 29 29 30 31 31 31 32 33 34 35 36 36 35 33 32 33 34 33 30 29 30 30 36 48 58 71 76 81 87 86 83 81 79 76 77 75 73 71 68 69 71 78 75 72 71 70
30 31 32 33 34 34 34 32 33 33 33 31 31 32 33 36 36 37 35 32 32 33 31 29 37 49 57 71 73 82 85 86 85 84 82 79 78 76 72 71 68 66 67 75 71 72 72
32 35 36 37 38 37 36 36 35 35 31 31 31 31 32 31 37 38 37 36 35 33 34 34 32 37 49 58 71 74 84 88 90 87 85 83 80 76 75 73 67 67 67 70 72 72 74
34 35 37 39 41 40 39 39 39 38 36 35 36 36 34 32 31 32 34 36 38 37 35 36 34 29 38 49 60 73 76 81 88 92 88 90 86 79 77 76 77 73 71 69 72 73 77
35 36 37 41 43 44 44 42 41 40 37 39 39 35 34 34 33 32 33 31 34 36 38 36 36 36 33 41 52 62 74 74 80 91 91 91 88 87 81 79 80 77 74 71 71 72 77
38 39 39 42 43 44 43 41 40 41 40 39 39 40 36 37 36 34 33 34 34 36 38 43 39 39 41 36 47 55 66 75 77 86 94 92 93 93 90 85 84 81 76 76 72 74 79
43 44 44 45 45 44 43 42 40 41 41 42 43 43 43 39 38 36 35 33 33 37 38 41 46 44 43 45 41 50 56 69 75 79 85 92 95 96 95 91 88 86 81 83 81 75 78
45 46 49 50 49 48 46 45 45 43 43 44 47 46 44 45 42 41 39 38 36 36 37 41 45 47 48 51 49 46 53 60 72 80 79 82 90 94 95 90 96 87 91 85 85 82 90
51 51 52 52 52 53 52 50 48 47 46 46 49 49 48 48 47 45 43 43 43 41 38 39 43 46 49 50 53 53 51 58 66 76 81 81 85 89 93 96 95 94 97 93 92 93 97
54 54 53 54 56 57 57 56 55 53 52 53 54 54 54 52 53 52 51 51 48 49 46 42 44 47 49 52 52 57 57 54 61 69 79 84 83 86 90 98 100 99 98 99 97 100 81
57 57 58 60 60 59 56 58 58 58 55 56 58 61 61 61 60 59 58 58 58 54 54 51 50 51 50 54 54 54 54 57 59 64 73 80 82 85 86 87 96 100 99 99 96 92 73
61 64 65 63 63 59 57 57 54 56 60 60 61 63 63 66 67 68 66 66 63 62 61 60 59 53 54 55 53 58 58 55 62 63 67 75 82 83 85 88 92 94 105 95 93 96 95
67 69 67 67 63 59 62 65 62 64 63 63 66 68 72 72 71 72 72 72 70 69 69 67 66 61 59 55 58 57 61 60 63 69 68 69 76 83 87 88 88 90 83 96 106 104 96
71 68 67 66 64 65 66 68 71 70 68 70 70 70 71 74 77 80 78 78 76 76 76 74 73 71 65 60 59 60 60 63 63 69 73 69 73 81 87 86 85 89 88 90 90 94 95
71 69 70 68 72 72 73 73 75 77 79 74 76 76 77 75 76 76 80 80 79 78 78 78 78 72 67 64 62 60 64 64 67 67 73 74 70 75 82 89 88 88 87 88 92 82 80
75 75 76 77 79 79 78 80 80 81 81 81 80 78 79 78 79 81 80 80 80 78 79 76 71 65 64 68 68 69 65 65 67 70 72 75 71 71 79 86 86 85 87 90 86 83 86
79 82 80 82 82 81 81 80 80 80 80 81 80 80 83 85 85 83 84 83 83 79 77 73 71 66 66 67 71 69 69 69 69 71 74 77 76 72 75 80 90 92 89 90 90 90 77
86 86 87 86 91 84 85 86 83 84 85 85 82 82 82 81 80 81 80 79 78 80 76 75 71 65 62 62 64 67 68 72 72 73 76 81 77 79 75 80 86 89 92 90 92 83 83
90 91 91 90 87 87 86 87 87 86 88 84 78 73 72 72 71 72 73 74 73 73 75 71 67 63 62 63 64 64 62 69 73 75 79 80 79 80 75 79 84 88 92 91 83 79 79
93 90 90 89 88 90 89 90 91 87 79 73 71 68 67 68 69 69 68 65 65 64 66 67 67 64 64 62 62 61 66 71 72 77 83 82 78 82 77 84 86 89 77 83 81 78 75
94 93 94 92 92 92 92 91 85 76 70 68 69 68 68 69 71 72 71 69 67 65 66 66 65 64 65 62 61 63 66 68 72 78 83 82 84 85 81 86 87 59 85 82 82 81 79
96 100 99 94 93 91 86 79 77 74 72 72 70 68 66 66 69 72 72 71 70 65 64 64 65 62 63 65 60 63 67 68 72 77 81 81 88 88 84 87 75 81 77 79 81 80 84
95 91 90 88 83 80 77 77 77 77 76 72 68 66 63 60 65 67 69 71 69 66 62 61 66 58 60 63 63 61 66 69 72 72 78 83 87 89 86 85 77 65 82 81 83 80 83
81 79 79 78 78 77 78 79 77 75 73 70 67 64 61 57 61 66 68 69 70 68 65 65 58 60 61 62 64 63 64 71 70 73 81 81 87 87 83 84 71 74 79 83 85 72 85
80 79 79 79 79 79 77 74 73 72 71 68 65 64 60 56 60 65 66 67 69 69 63 63 56 56 55 57 61 63 64 70 71 75 79 83 84 85 84 82 73 76 82 88 85 83 83
80 80 79 77 76 75 73 73 71 71 70 69 66 65 62 59 59 61 63 68 67 66 62 61 57 58 57 56 58 59 62 67 73 75 81 81 86 85 78 69 73 87 96 91 85 84 84
Wind_Direction
306 307 306 307 307 304 304 303 294 287 290 290 284 290 292 288 282 266 249 244 247 246 243 239 236 236 237 238 239 241 242 241 239 239 242 242 241 237 238 238 236 236 234 232 233 238 239
300 302 301 300 303 299 297 297 295 293 295 291 284 279 280 284 285 287 280 253 251 246 245 242 239 236 235 236 237 239 239 239 240 239 238 241 240 241 239 238 238 238 238 236 235 236 238
300 303 301 299 297 300 296 295 292 290 290 289 285 283 281 277 275 280 283 280 269 262 249 243 240 236 235 235 236 237 237 236 239 239 239 238 240 241 240 240 239 239 238 238 237 237 240
305 305 308 304 303 299 296 295 294 294 291 288 283 277 278 273 272 267 270 276 281 281 259 249 241 239 235 233 233 234 235 235 235 237 239 237 237 239 240 241 240 240 240 239 237 238 239
303 304 308 307 303 302 296 295 293 293 295 293 290 284 280 272 268 264 262 265 271 280 277 257 248 239 237 234 230 232 231 233 234 236 238 237 235 238 239 239 240 241 241 238 237 237 237
302 305 308 307 306 303 300 295 293 290 286 289 290 293 287 277 268 265 261 257 263 263 274 275 264 246 241 235 232 230 230 232 234 236 236 236 235 236 238 238 239 238 239 239 235 234 232
305 306 311 311 308 304 301 296 292 291 283 282 286 289 290 285 277 272 264 264 257 256 259 267 270 265 244 239 234 230 228 231 231 232 233 235 237 237 237 238 237 236 237 238 236 231 229
304 312 311 314 313 309 303 299 294 290 286 278 283 286 287 286 283 277 269 260 258 256 253 257 262 267 258 243 236 232 229 226 229 229 232 234 235 237 236 237 239 239 236 237 237 231 232
305 309 313 312 314 314 308 297 294 288 286 279 280 285 284 282 284 281 276 267 260 255 258 259 255 261 261 251 242 236 231 229 227 228 230 231 234 236 237 238 238 240 239 238 236 234 230
306 306 309 310 310 314 311 305 300 292 285 280 278 281 283 282 280 282 279 277 270 261 253 255 260 256 256 258 252 239 234 231 228 226 230 231 233 235 237 238 237 238 239 239 236 236 236
306 306 307 308 307 311 310 309 300 295 291 284 283 280 280 283 282 280 279 281 276 272 263 255 254 258 258 255 253 252 237 233 230 228 227 229 230 230 232 233 235 234 237 239 240 235 235
303 304 306 307 305 304 306 304 306 294 288 287 285 281 280 279 279 279 278 279 280 278 275 266 258 256 256 257 254 251 248 236 232 230 228 227 229 228 228 230 233 233 236 238 238 236 236
299 301 303 303 303 299 299 300 301 299 290 283 281 280 279 279 278 279 278 277 280 280 280 276 268 263 259 256 256 255 248 245 235 231 229 227 227 229 229 229 231 232 234 238 238 239 242
299 300 299 301 300 299 297 297 295 294 290 287 282 280 279 278 277 278 277 277 276 279 279 278 275 270 264 261 260 257 254 247 245 235 231 229 226 227 230 230 232 232 234 237 239 242 239
297 297 297 298 296 295 293 297 295 295 289 282 279 278 279 278 276 276 275 275 274 276 276 276 277 275 269 263 262 258 251 249 245 243 235 230 227 225 226 229 231 232 233 236 238 237 232
296 297 296 295 292 293 294 294 296 294 293 286 282 279 275 274 271 271 271 271 271 273 272 274 276 277 271 264 261 258 255 250 244 244 240 233 230 228 226 227 231 233 234 233 234 235 238
294 295 294 294 291 293 293 294 294 294 294 290 285 283 282 279 275 272 271 270 270 270 272 273 274 274 272 267 264 257 253 247 245 242 244 237 230 230 228 226 230 231 231 235 239 236 237
294 293 293 294 294 294 293 293 294 292 290 287 287 284 283 281 278 278 275 275 273 272 273 274 273 271 268 265 263 261 252 246 244 240 239 240 234 230 230 227 226 229 229 232 234 233 236
293 295 293 294 294 292 292 291 291 291 290 289 287 283 281 278 276 276 276 276 276 275 274 274 271 267 262 264 264 261 257 249 242 239 236 239 238 230 230 230 228 226 228 231 232 230 230
295 296 293 295 292 291 292 291 290 291 291 289 288 286 283 281 279 277 274 274 274 275 276 274 270 266 263 261 258 256 250 247 243 239 235 235 236 234 231 230 229 226 226 228 230 229 229
295 295 293 293 294 290 289 289 289 290 292 290 289 287 285 283 279 277 276 275 275 274 274 274 272 269 262 256 254 250 246 243 240 238 236 235 232 231 230 230 232 230 229 228 230 229 230
293 293 293 291 292 290 292 289 290 292 292 291 289 288 287 286 283 281 277 274 274 274 273 271 268 265 261 257 251 251 245 244 240 238 237 235 232 234 228 229 232 231 230 229 229 230 229
292 292 293 291 290 291 292 291 292 293 291 290 290 289 288 286 284 282 281 278 276 272 271 269 268 264 261 257 254 249 245 243 240 238 235 235 232 232 230 228 230 231 232 232 227 227 227
292 291 294 292 291 292 292 293 293 293 292 290 292 289 289 289 286 284 283 279 277 274 272 269 265 262 260 253 249 246 244 239 238 239 237 234 234 232 227 230 231 230 231 230 228 226 227
292 293 291 290 291 292 292 293 293 294 293 292 290 289 287 285 283 283 281 280 277 273 270 269 266 260 256 256 248 243 241 238 237 236 239 234 234 235 230 229 231 224 229 230 229 227 227
292 290 291 292 292 292 293 293 294 293 292 291 289 287 285 283 281 280 280 278 277 275 272 266 263 259 255 253 249 242 240 239 236 235 237 235 232 234 233 233 232 225 226 228 228 224 229
293 294 294 294 293 294 294 294 294 292 291 290 289 287 286 283 282 281 279 278 277 274 271 269 267 262 255 250 248 242 237 238 236 234 234 235 233 233 229 233 227 224 228 227 228 219 225
292 293 293 293 293 293 294 293 292 292 291 290 290 288 287 285 283 280 279 277 274 273 274 273 266 262 257 252 247 243 236 235 235 234 234 234 235 234 229 232 224 220 225 224 224 225 226
292 292 292 293 293 294 294 293 294 293 292 292 292 289 288 286 281 281 278 275 274 274 270 269 267 261 254 251 246 244 238 233 231 232 234 233 234 235 234 230 220 221 223 222 220 223 222
Height
10656 10654 10650 10647 10644 10640 10637 10634 10631 10628 10626 10623 10620 10617 10616 10614 10613 10614 10615 10617 10619 10620 10624 10629 10638 10645 10653 10660 10670 10676 10681 10688 10696 10703 10709 10715 10722 10729 10736 10744 10752 10760 10767 10774 10779 10786 10791
10651 10648 10645 10641 10638 10633 10630 10628 10625 10623 10620 10617 10614 10612 10610 10607 10606 10604 10604 10604 10606 10606 10608 10612 10618 10625 10633 10643 10650 10657 10666 10674 10681 10688 10696 10702 10710 10716 10722 10730 10736 10749 10754 10761 10768 10774 10781
10646 10642 10639 10635 10631 10627 10623 10621 10617 10615 10612 10610 10608 10606 10603 10601 10599 10597 10595 10594 10594 10595 10596 10597 10600 10605 10613 10624 10629 10640 10648 10657 10666 10672 10681 10689 10695 10700 10711 10715 10725 10733 10740 10749 10757 10763 10770
10638 10634 10631 10627 10623 10619 10615 10612 10609 10606 10603 10600 10598 10596 10595 10592 10591 10589 10588 10585 10584 10583 10584 10584 10585 10590 10595 10602 10611 10622 10631 10641 10649 10657 10665 10674 10680 10686 10693 10706 10710 10718 10726 10736 10747 10752 10759
10630 10626 10622 10618 10614 10611 10607 10604 10601 10597 10594 10591 10588 10587 10585 10582 10580 10580 10579 10577 10575 10574 10573 10574 10574 10575 10580 10585 10594 10602 10612 10623 10632 10640 10649 10656 10664 10672 10681 10690 10697 10707 10713 10717 10732 10738 10745
10623 10619 10614 10609 10605 10602 10598 10595 10592 10588 10586 10583 10579 10577 10574 10572 10569 10568 10568 10567 10566 10565 10564 10564 10564 10565 10567 10570 10577 10583 10594 10605 10613 10622 10632 10639 10648 10657 10666 10675 10691 10692 10695 10702 10715 10723 10728
10614 10610 10605 10600 10595 10592 10588 10585 10582 10579 10576 10572 10570 10568 10565 10563 10560 10558 10559 10559 10557 10556 10555 10554 10554 10554 10556 10557 10560 10566 10573 10583 10593 10603 10612 10621 10631 10645 10650 10659 10663 10675 10682 10690 10694 10705 10709
10605 10602 10597 10591 10586 10581 10576 10573 10570 10568 10566 10562 10558 10558 10556 10554 10551 10549 10549 10549 10548 10547 10544 10543 10543 10542 10545 10544 10545 10551 10557 10565 10574 10583 10592 10605 10621 10621 10631 10642 10649 10658 10668 10675 10679 10688 10691
10595 10592 10587 10582 10577 10572 10567 10563 10560 10557 10555 10553 10548 10547 10547 10544 10542 10540 10539 10538 10538 10537 10536 10531 10532 10530 10532 10533 10532 10536 10543 10548 10555 10564 10574 10585 10594 10604 10611 10623 10634 10644 10655 10657 10666 10668 10670
10585 10581 10577 10572 10568 10563 10558 10554 10551 10547 10544 10542 10539 10536 10534 10534 10532 10530 10528 10526 10526 10525 10526 10522 10520 10521 10519 10520 10522 10524 10528 10533 10540 10544 10553 10566 10577 10583 10593 10609 10616 10627 10636 10636 10642 10654 10657
10574 10569 10565 10559 10554 10550 10547 10543 10540 10536 10534 10531 10527 10525 10522 10521 10520 10518 10517 10514 10513 10512 10513 10511 10509 10506 10506 10508 10508 10512 10514 10517 10521 10526 10535 10549 10552 10561 10575 10593 10587 10614 10604 10617 10624 10633 10620
10562 10558 10553 10548 10542 10538 10534 10531 10527 10524 10521 10519 10514 10511 10509 10506 10506 10505 10503 10501 10499 10498 10497 10498 10497 10494 10492 10493 10493 10497 10501 10504 10505 10512 10519 10527 10532 10542 10556 10560 10571 10582 10586 10595 10600 10606 10597
10550 10545 10541 10536 10531 10525 10521 10517 10513 10510 10506 10505 10500 10497 10494 10492 10490 10489 10487 10486 10484 10482 10482 10484 10482 10480 10479 10478 10480 10480 10486 10490 10492 10496 10500 10503 10515 10522 10533 10540 10547 10558 10565 10570 10580 10579 10626
10535 10531 10527 10523 10517 10512 10507 10502 10499 10495 10490 10488 10483 10480 10477 10475 10473 10470 10469 10467 10466 10468 10464 10464 10463 10464 10465 10463 10464 10464 10467 10473 10474 10477 10480 10488 10495 10502 10513 10523 10527 10535 10543 10554 10566 10584 10619
10520 10515 10511 10507 10502 10496 10490 10486 10482 10479 10475 10471 10467 10461 10458 10456 10453 10450 10448 10446 10446 10447 10445 10444 10443 10446 10446 10445 10448 10446 10449 10451 10455 10459 10463 10467 10476 10485 10490 10496 10499 10518 10515 10553 10559 10557 10562
10502 10497 10492 10487 10484 10480 10474 10466 10463 10459 10455 10450 10447 10443 10439 10435 10432 10427 10426 10424 10426 10425 10423 10423 10421 10425 10424 10428 10426 10428 10427 10433 10435 10438 10444 10454 10459 10465 10470 10476 10488 10496 10525 10511 10507 10526 10549
10484 10479 10473 10467 10463 10460 10456 10450 10441 10436 10433 10429 10425 10419 10415 10411 10408 10403 10402 10401 10402 10400 10399 10400 10400 10400 10402 10404 10404 10405 10407 10412 10414 10418 10423 10431 10440 10443 10450 10466 10472 10479 10490 10494 10509 10518 10530
10464 10457 10452 10447 10442 10437 10434 10429 10422 10415 10406 10404 10400 10394 10390 10386 10381 10377 10375 10374 10373 10374 10375 10373 10373 10378 10380 10379 10379 10379 10382 10390 10393 10396 10400 10408 10419 10428 10436 10438 10448 10455 10472 10479 10478 10509 10524
10441 10435 10429 10424 10418 10413 10408 10403 10398 10392 10385 10376 10371 10367 10362 10359 10355 10351 10347 10346 10344 10344 10344 10347 10347 10350 10355 10352 10354 10354 10360 10367 10372 10375 10380 10387 10403 10409 10411 10419 10435 10444 10452 10456 10469 10483 10492
10415 10410 10404 10399 10393 10388 10382 10377 10374 10365 10359 10353 10345 10339 10333 10328 10325 10322 10320 10318 10316 10317 10314 10315 10318 10323 10326 10327 10324 10333 10335 10340 10347 10354 10358 10363 10377 10390 10396 10403 10397 10410 10423 10432 10442 10451 10490
10392 10386 10381 10372 10362 10361 10355 10350 10346 10339 10331 10325 10318 10311 10303 10299 10295 10292 10290 10290 10289 10288 10288 10286 10289 10295 10295 10298 10301 10303 10313 10315 10321 10328 10334 10340 10355 10362 10378 10381 10385 10396 10404 10412 10420 10453 10458
10364 10357 10351 10345 10339 10332 10327 10317 10314 10313 10303 10294 10290 10284 10277 10272 10267 10264 10262 10262 10263 10262 10257 10259 10262 10267 10269 10271 10275 10282 10291 10291 10298 10306 10310 10318 10333 10341 10358 10360 10363 10370 10381 10396 10418 10439 10448
10336 10330 10322 10317 10310 10303 10297 10291 10284 10283 10276 10267 10260 10260 10256 10249 10242 10238 10235 10236 10235 10236 10234 10234 10236 10241 10244 10250 10255 10260 10263 10266 10275 10279 10282 10294 10310 10318 10336 10333 10336 10343 10386 10393 10404 10415 10432
10307 10299 10293 10287 10281 10274 10268 10261 10254 10252 10249 10245 10239 10236 10233 10224 10215 10208 10208 10210 10210 10210 10209 10208 10211 10215 10215 10223 10229 10235 10239 10245 10249 10252 10258 10276 10282 10291 10310 10310 10315 10375 10347 10369 10383 10396 10404
10276 10270 10262 10257 10251 10245 10240 10234 10228 10224 10222 10218 10216 10213 10211 10205 10193 10185 10182 10179 10179 10184 10185 10184 10182 10189 10192 10195 10206 10211 10214 10222 10227 10228 10237 10253 10252 10268 10283 10291 10320 10321 10343 10352 10362 10380 10380
10246 10239 10233 10228 10223 10218 10213 10208 10203 10197 10194 10192 10190 10187 10186 10185 10171 10164 10159 10152 10154 10155 10158 10160 10155 10167 10170 10172 10180 10190 10193 10198 10204 10215 10214 10220 10230 10239 10260 10274 10295 10335 10316 10328 10337 10359 10368
10219 10213 10208 10202 10197 10192 10187 10183 10178 10172 10167 10165 10164 10162 10160 10162 10150 10141 10135 10131 10126 10128 10131 10130 10141 10142 10145 10150 10156 10166 10173 10174 10186 10191 10189 10196 10204 10219 10242 10250 10290 10300 10303 10307 10313 10350 10335
10195 10190 10185 10179 10173 10167 10162 10157 10152 10147 10141 10139 10138 10135 10135 10137 10130 10118 10112 10107 10101 10102 10111 10110 10117 10118 10125 10129 10132 10139 10149 10154 10164 10167 10169 10175 10184 10196 10219 10231 10261 10280 10275 10279 10295 10305 10325
10172 10166 10160 10155 10149 10143 10138 10132 10128 10122 10117 10113 10113 10109 10110 10109 10106 10098 10090 10079 10082 10083 10087 10087 10094 10093 10100 10106 10112 10120 10128 10134 10140 10147 10145 10155 10160 10175 10196 10226 10250 10232 10228 10253 10278 10288 10302